Year,Month,Day,Hour,Minute,Value (Times are PST for windgust in km/hr)
2010,04,27,00,00,27.40
2010,04,27,00,01,20.90
2010,04,27,00,02,30.60
2010,04,27,00,03,25.70
2010,04,27,00,04,20.90
2010,04,27,00,05,30.60
2010,04,27,00,06,33.80
2010,04,27,00,07,20.90
2010,04,27,00,08,20.90
2010,04,27,00,09,25.70
2010,04,27,00,10,29.00
2010,04,27,00,11,17.70
2010,04,27,00,12,25.70
2010,04,27,00,13,27.40
2010,04,27,00,14,32.20
2010,04,27,00,15,22.50
2010,04,27,00,16,24.20
2010,04,27,00,17,29.00
2010,04,27,00,18,24.20
2010,04,27,00,19,27.40
2010,04,27,00,20,24.20
2010,04,27,00,21,33.80
2010,04,27,00,22,25.70
2010,04,27,00,23,25.70
2010,04,27,00,24,25.70
2010,04,27,00,25,33.80
2010,04,27,00,26,25.70
2010,04,27,00,27,40.20
2010,04,27,00,28,32.20
2010,04,27,00,29,32.20
2010,04,27,00,30,27.40
2010,04,27,00,31,27.40
2010,04,27,00,32,24.20
2010,04,27,00,33,33.80
2010,04,27,00,34,32.20
2010,04,27,00,35,33.80
2010,04,27,00,36,32.20
2010,04,27,00,37,30.60
2010,04,27,00,38,33.80
2010,04,27,00,39,30.60
2010,04,27,00,40,29.00
2010,04,27,00,41,25.70
2010,04,27,00,42,33.80
2010,04,27,00,43,33.80
2010,04,27,00,44,32.20
2010,04,27,00,45,25.70
2010,04,27,00,46,29.00
2010,04,27,00,47,33.80
2010,04,27,00,48,37.00
2010,04,27,00,49,24.20
2010,04,27,00,50,27.40
2010,04,27,00,51,25.70
2010,04,27,00,52,29.00
2010,04,27,00,53,32.20
2010,04,27,00,54,29.00
2010,04,27,00,55,35.40
2010,04,27,00,56,24.20
2010,04,27,00,57,32.20
2010,04,27,00,58,27.40
2010,04,27,00,59,29.00
2010,04,27,01,00,29.00
2010,04,27,01,01,32.20
2010,04,27,01,02,20.90
2010,04,27,01,03,32.20
2010,04,27,01,04,38.60
2010,04,27,01,05,27.40
2010,04,27,01,06,27.40
2010,04,27,01,07,27.40
2010,04,27,01,08,38.60
2010,04,27,01,09,30.60
2010,04,27,01,10,32.20
2010,04,27,01,11,27.40
2010,04,27,01,12,25.70
2010,04,27,01,13,29.00
2010,04,27,01,14,27.40
2010,04,27,01,15,24.20
2010,04,27,01,16,29.00
2010,04,27,01,17,22.50
2010,04,27,01,18,22.50
2010,04,27,01,19,25.70
2010,04,27,01,20,24.20
2010,04,27,01,21,19.30
2010,04,27,01,22,29.00
2010,04,27,01,23,20.90
2010,04,27,01,24,20.90
2010,04,27,01,25,24.20
2010,04,27,01,26,19.30
2010,04,27,01,27,16.10
2010,04,27,01,28,30.60
2010,04,27,01,29,27.40
2010,04,27,01,30,24.20
2010,04,27,01,31,27.40
2010,04,27,01,32,20.90
2010,04,27,01,33,20.90
2010,04,27,01,34,19.30
2010,04,27,01,35,14.50
2010,04,27,01,36,29.00
2010,04,27,01,37,20.90
2010,04,27,01,38,20.90
2010,04,27,01,39,20.90
2010,04,27,01,40,16.10
2010,04,27,01,41,30.60
2010,04,27,01,42,24.20
2010,04,27,01,43,22.50
2010,04,27,01,44,20.90
2010,04,27,01,45,25.70
2010,04,27,01,46,16.10
2010,04,27,01,47,22.50
2010,04,27,01,48,24.20
2010,04,27,01,49,30.60
2010,04,27,01,50,17.70
2010,04,27,01,51,30.60
2010,04,27,01,52,27.40
2010,04,27,01,53,25.70
2010,04,27,01,54,24.20
2010,04,27,01,55,33.80
2010,04,27,01,56,20.90
2010,04,27,01,57,25.70
2010,04,27,01,58,25.70
2010,04,27,01,59,25.70
2010,04,27,02,00,24.20
2010,04,27,02,01,20.90
2010,04,27,02,02,30.60
2010,04,27,02,03,35.40
2010,04,27,02,04,24.20
2010,04,27,02,05,22.50
2010,04,27,02,06,29.00
2010,04,27,02,07,20.90
2010,04,27,02,08,24.20
2010,04,27,02,09,32.20
2010,04,27,02,10,29.00
2010,04,27,02,11,24.20
2010,04,27,02,12,20.90
2010,04,27,02,13,22.50
2010,04,27,02,14,25.70
2010,04,27,02,15,22.50
2010,04,27,02,16,30.60
2010,04,27,02,17,30.60
2010,04,27,02,18,32.20
2010,04,27,02,19,20.90
2010,04,27,02,20,24.20
2010,04,27,02,21,20.90
2010,04,27,02,22,25.70
2010,04,27,02,23,24.20
2010,04,27,02,24,24.20
2010,04,27,02,25,27.40
2010,04,27,02,26,27.40
2010,04,27,02,27,33.80
2010,04,27,02,28,27.40
2010,04,27,02,29,29.00
2010,04,27,02,30,24.20
2010,04,27,02,31,24.20
2010,04,27,02,32,24.20
2010,04,27,02,33,16.10
2010,04,27,02,34,22.50
2010,04,27,02,35,14.50
2010,04,27,02,36,17.70
2010,04,27,02,37,16.10
2010,04,27,02,38,14.50
2010,04,27,02,39,25.70
2010,04,27,02,40,22.50
2010,04,27,02,41,27.40
2010,04,27,02,42,17.70
2010,04,27,02,43,19.30
2010,04,27,02,44,16.10
2010,04,27,02,45,19.30
2010,04,27,02,46,17.70
2010,04,27,02,47,22.50
2010,04,27,02,48,24.20
2010,04,27,02,49,16.10
2010,04,27,02,50,14.50
2010,04,27,02,51,16.10
2010,04,27,02,52,19.30
2010,04,27,02,53,16.10
2010,04,27,02,54,8.10
2010,04,27,02,55,11.30
2010,04,27,02,56,9.60
2010,04,27,02,57,9.60
2010,04,27,02,58,6.40
2010,04,27,02,59,9.60
2010,04,27,03,00,9.60
2010,04,27,03,01,12.90
2010,04,27,03,02,16.10
2010,04,27,03,03,14.50
2010,04,27,03,04,11.30
2010,04,27,03,05,9.60
2010,04,27,03,06,11.30
2010,04,27,03,07,11.30
2010,04,27,03,08,8.10
2010,04,27,03,09,8.10
2010,04,27,03,10,11.30
2010,04,27,03,11,14.50
2010,04,27,03,12,12.90
2010,04,27,03,13,11.30
2010,04,27,03,14,17.70
2010,04,27,03,15,16.10
2010,04,27,03,16,12.90
2010,04,27,03,17,14.50
2010,04,27,03,18,14.50
2010,04,27,03,19,11.30
2010,04,27,03,20,11.30
2010,04,27,03,21,14.50
2010,04,27,03,22,12.90
2010,04,27,03,23,11.30
2010,04,27,03,24,9.60
2010,04,27,03,25,9.60
2010,04,27,03,26,9.60
2010,04,27,03,27,11.30
2010,04,27,03,28,9.60
2010,04,27,03,29,12.90
2010,04,27,03,30,14.50
2010,04,27,03,31,11.30
2010,04,27,03,32,11.30
2010,04,27,03,33,16.10
2010,04,27,03,34,14.50
2010,04,27,03,35,9.60
2010,04,27,03,36,8.10
2010,04,27,03,37,9.60
2010,04,27,03,38,9.60
2010,04,27,03,39,14.50
2010,04,27,03,40,22.50
2010,04,27,03,41,17.70
2010,04,27,03,42,17.70
2010,04,27,03,43,22.50
2010,04,27,03,44,19.30
2010,04,27,03,45,24.20
2010,04,27,03,46,20.90
2010,04,27,03,47,16.10
2010,04,27,03,48,17.70
2010,04,27,03,49,19.30
2010,04,27,03,50,19.30
2010,04,27,03,51,16.10
2010,04,27,03,52,16.10
2010,04,27,03,53,14.50
2010,04,27,03,54,14.50
2010,04,27,03,55,11.30
2010,04,27,03,56,17.70
2010,04,27,03,57,14.50
2010,04,27,03,58,14.50
2010,04,27,03,59,14.50
2010,04,27,04,00,11.30
2010,04,27,04,01,14.50
2010,04,27,04,02,16.10
2010,04,27,04,03,9.60
2010,04,27,04,04,11.30
2010,04,27,04,05,11.30
2010,04,27,04,06,9.60
2010,04,27,04,07,9.60
2010,04,27,04,08,11.30
2010,04,27,04,09,16.10
2010,04,27,04,10,11.30
2010,04,27,04,11,11.30
2010,04,27,04,12,11.30
2010,04,27,04,13,9.60
2010,04,27,04,14,8.10
2010,04,27,04,15,8.10
2010,04,27,04,16,9.60
2010,04,27,04,17,8.10
2010,04,27,04,18,6.40
2010,04,27,04,19,8.10
2010,04,27,04,20,6.40
2010,04,27,04,21,6.40
2010,04,27,04,22,4.80
2010,04,27,04,23,3.20
2010,04,27,04,24,3.20
2010,04,27,04,25,9.60
2010,04,27,04,26,6.40
2010,04,27,04,27,6.40
2010,04,27,04,28,4.80
2010,04,27,04,29,8.10
2010,04,27,04,30,4.80
2010,04,27,04,31,3.20
2010,04,27,04,32,4.80
2010,04,27,04,33,9.60
2010,04,27,04,34,9.60
2010,04,27,04,35,4.80
2010,04,27,04,36,6.40
2010,04,27,04,37,6.40
2010,04,27,04,38,4.80
2010,04,27,04,39,8.10
2010,04,27,04,40,8.10
2010,04,27,04,41,8.10
2010,04,27,04,42,6.40
2010,04,27,04,43,6.40
2010,04,27,04,44,9.60
2010,04,27,04,45,8.10
2010,04,27,04,46,6.40
2010,04,27,04,47,4.80
2010,04,27,04,48,8.10
2010,04,27,04,49,6.40
2010,04,27,04,50,8.10
2010,04,27,04,51,8.10
2010,04,27,04,52,4.80
2010,04,27,04,53,4.80
2010,04,27,04,54,8.10
2010,04,27,04,55,6.40
2010,04,27,04,56,6.40
2010,04,27,04,57,6.40
2010,04,27,04,58,9.60
2010,04,27,04,59,6.40
2010,04,27,05,00,12.90
2010,04,27,05,01,11.30
2010,04,27,05,02,8.10
2010,04,27,05,03,11.30
2010,04,27,05,04,9.60
2010,04,27,05,05,11.30
2010,04,27,05,06,16.10
2010,04,27,05,07,14.50
2010,04,27,05,08,14.50
2010,04,27,05,09,14.50
2010,04,27,05,10,20.90
2010,04,27,05,11,17.70
2010,04,27,05,12,16.10
2010,04,27,05,13,16.10
2010,04,27,05,14,8.10
2010,04,27,05,15,8.10
2010,04,27,05,16,9.60
2010,04,27,05,17,16.10
2010,04,27,05,18,22.50
2010,04,27,05,19,17.70
2010,04,27,05,20,11.30
2010,04,27,05,21,6.40
2010,04,27,05,22,8.10
2010,04,27,05,23,9.60
2010,04,27,05,24,11.30
2010,04,27,05,25,14.50
2010,04,27,05,26,11.30
2010,04,27,05,27,6.40
2010,04,27,05,28,8.10
2010,04,27,05,29,27.40
2010,04,27,05,30,20.90
2010,04,27,05,31,16.10
2010,04,27,05,32,16.10
2010,04,27,05,33,8.10
2010,04,27,05,34,11.30
2010,04,27,05,35,9.60
2010,04,27,05,36,14.50
2010,04,27,05,37,9.60
2010,04,27,05,38,9.60
2010,04,27,05,39,11.30
2010,04,27,05,40,9.60
2010,04,27,05,41,6.40
2010,04,27,05,42,4.80
2010,04,27,05,43,8.10
2010,04,27,05,44,11.30
2010,04,27,05,45,11.30
2010,04,27,05,46,11.30
2010,04,27,05,47,9.60
2010,04,27,05,48,8.10
2010,04,27,05,49,9.60
2010,04,27,05,50,8.10
2010,04,27,05,51,6.40
2010,04,27,05,52,9.60
2010,04,27,05,53,9.60
2010,04,27,05,54,6.40
2010,04,27,05,55,4.80
2010,04,27,05,57,3.20
2010,04,27,05,58,3.20
2010,04,27,06,00,1.60
2010,04,27,06,01,6.40
2010,04,27,06,02,4.80
2010,04,27,06,03,6.40
2010,04,27,06,04,6.40
2010,04,27,06,05,6.40
2010,04,27,06,06,6.40
2010,04,27,06,07,8.10
2010,04,27,06,08,8.10
2010,04,27,06,09,6.40
2010,04,27,06,10,4.80
2010,04,27,06,15,4.80
2010,04,27,06,16,8.10
2010,04,27,06,17,4.80
2010,04,27,06,18,6.40
2010,04,27,06,19,6.40
2010,04,27,06,20,4.80
2010,04,27,06,21,4.80
2010,04,27,06,27,4.80
2010,04,27,06,28,4.80
2010,04,27,06,29,4.80
2010,04,27,06,30,3.20
2010,04,27,06,31,4.80
2010,04,27,06,32,4.80
2010,04,27,06,33,4.80
2010,04,27,06,34,4.80
2010,04,27,06,35,1.60
2010,04,27,06,36,4.80
2010,04,27,06,37,4.80
2010,04,27,06,38,4.80
2010,04,27,06,39,4.80
2010,04,27,06,40,1.60
2010,04,27,06,41,3.20
2010,04,27,06,42,4.80
2010,04,27,06,43,4.80
2010,04,27,06,44,4.80
2010,04,27,06,45,4.80
2010,04,27,06,46,4.80
2010,04,27,06,47,6.40
2010,04,27,06,48,6.40
2010,04,27,06,49,8.10
2010,04,27,06,50,6.40
2010,04,27,06,51,8.10
2010,04,27,06,52,8.10
2010,04,27,06,53,8.10
2010,04,27,06,54,8.10
2010,04,27,06,55,8.10
2010,04,27,06,56,9.60
2010,04,27,06,57,11.30
2010,04,27,06,58,11.30
2010,04,27,06,59,9.60
2010,04,27,07,00,11.30
2010,04,27,07,01,8.10
2010,04,27,07,02,6.40
2010,04,27,07,03,6.40
2010,04,27,07,04,4.80
2010,04,27,07,05,4.80
2010,04,27,07,06,4.80
2010,04,27,07,08,3.20
2010,04,27,07,09,3.20
2010,04,27,07,10,3.20
2010,04,27,07,11,4.80
2010,04,27,07,12,4.80
2010,04,27,07,13,4.80
2010,04,27,07,14,1.60
2010,04,27,07,15,4.80
2010,04,27,07,16,3.20
2010,04,27,07,17,4.80
2010,04,27,07,18,4.80
2010,04,27,07,19,4.80
2010,04,27,07,20,6.40
2010,04,27,07,21,4.80
2010,04,27,07,22,4.80
2010,04,27,07,23,4.80
2010,04,27,07,24,4.80
2010,04,27,07,25,4.80
2010,04,27,07,26,8.10
2010,04,27,07,27,4.80
2010,04,27,07,28,6.40
2010,04,27,07,29,6.40
2010,04,27,07,30,8.10
2010,04,27,07,31,8.10
2010,04,27,07,32,4.80
2010,04,27,07,33,6.40
2010,04,27,07,34,4.80
2010,04,27,07,35,6.40
2010,04,27,07,36,4.80
2010,04,27,07,37,4.80
2010,04,27,07,38,4.80
2010,04,27,07,39,6.40
2010,04,27,07,40,6.40
2010,04,27,07,41,6.40
2010,04,27,07,42,8.10
2010,04,27,07,43,8.10
2010,04,27,07,44,9.60
2010,04,27,07,45,8.10
2010,04,27,07,46,6.40
2010,04,27,07,47,9.60
2010,04,27,07,48,9.60
2010,04,27,07,49,8.10
2010,04,27,07,50,9.60
2010,04,27,07,51,9.60
2010,04,27,07,52,6.40
2010,04,27,07,53,4.80
2010,04,27,07,54,6.40
2010,04,27,07,55,3.20
2010,04,27,07,56,11.30
2010,04,27,07,57,12.90
2010,04,27,07,58,12.90
2010,04,27,07,59,8.10
2010,04,27,08,00,9.60
2010,04,27,08,01,4.80
2010,04,27,08,02,11.30
2010,04,27,08,03,8.10
2010,04,27,08,04,4.80
2010,04,27,08,05,12.90
2010,04,27,08,06,11.30
2010,04,27,08,07,11.30
2010,04,27,08,08,12.90
2010,04,27,08,09,11.30
2010,04,27,08,10,9.60
2010,04,27,08,11,14.50
2010,04,27,08,12,9.60
2010,04,27,08,13,9.60
2010,04,27,08,14,11.30
2010,04,27,08,15,11.30
2010,04,27,08,16,11.30
2010,04,27,08,17,9.60
2010,04,27,08,18,8.10
2010,04,27,08,19,8.10
2010,04,27,08,20,8.10
2010,04,27,08,21,6.40
2010,04,27,08,22,3.20
2010,04,27,08,23,4.80
2010,04,27,08,24,8.10
2010,04,27,08,25,8.10
2010,04,27,08,26,6.40
2010,04,27,08,27,8.10
2010,04,27,08,28,8.10
2010,04,27,08,29,8.10
2010,04,27,08,30,4.80
2010,04,27,08,31,9.60
2010,04,27,08,32,8.10
2010,04,27,08,33,8.10
2010,04,27,08,34,9.60
2010,04,27,08,35,9.60
2010,04,27,08,36,8.10
2010,04,27,08,37,8.10
2010,04,27,08,38,8.10
2010,04,27,08,39,4.80
2010,04,27,08,40,4.80
2010,04,27,08,41,4.80
2010,04,27,08,42,4.80
2010,04,27,08,43,4.80
2010,04,27,08,44,6.40
2010,04,27,08,45,3.20
2010,04,27,08,46,6.40
2010,04,27,08,47,8.10
2010,04,27,08,48,4.80
2010,04,27,08,49,3.20
2010,04,27,08,50,4.80
2010,04,27,08,51,3.20
2010,04,27,08,52,4.80
2010,04,27,08,53,8.10
2010,04,27,08,54,6.40
2010,04,27,08,55,4.80
2010,04,27,08,57,4.80
2010,04,27,08,58,6.40
2010,04,27,08,59,8.10
2010,04,27,09,00,6.40
2010,04,27,09,01,6.40
2010,04,27,09,02,4.80
2010,04,27,09,03,1.60
2010,04,27,09,04,9.60
2010,04,27,09,05,6.40
2010,04,27,09,06,6.40
2010,04,27,09,07,4.80
2010,04,27,09,08,8.10
2010,04,27,09,09,4.80
2010,04,27,09,10,3.20
2010,04,27,09,11,3.20
2010,04,27,09,12,3.20
2010,04,27,09,13,3.20
2010,04,27,09,15,3.20
2010,04,27,09,16,1.60
2010,04,27,09,17,3.20
2010,04,27,09,18,3.20
2010,04,27,09,19,4.80
2010,04,27,09,24,4.80
2010,04,27,09,25,4.80
2010,04,27,09,26,1.60
2010,04,27,09,27,4.80
2010,04,27,09,29,3.20
2010,04,27,09,31,4.80
2010,04,27,09,32,3.20
2010,04,27,09,33,3.20
2010,04,27,09,38,4.80
2010,04,27,09,39,3.20
2010,04,27,09,40,4.80
2010,04,27,09,41,4.80
2010,04,27,09,42,1.60
2010,04,27,09,47,3.20
2010,04,27,09,48,8.10
2010,04,27,09,49,4.80
2010,04,27,09,50,6.40
2010,04,27,09,51,4.80
2010,04,27,09,52,6.40
2010,04,27,09,53,6.40
2010,04,27,09,54,6.40
2010,04,27,09,55,14.50
2010,04,27,09,56,16.10
2010,04,27,09,57,17.70
2010,04,27,09,58,11.30
2010,04,27,09,59,19.30
2010,04,27,10,00,19.30
2010,04,27,10,01,6.40
2010,04,27,10,02,3.20
2010,04,27,10,03,4.80
2010,04,27,10,04,4.80
2010,04,27,10,05,3.20
2010,04,27,10,06,6.40
2010,04,27,10,07,6.40
2010,04,27,10,08,6.40
2010,04,27,10,09,3.20
2010,04,27,10,10,4.80
2010,04,27,10,11,6.40
2010,04,27,10,12,4.80
2010,04,27,10,13,4.80
2010,04,27,10,14,6.40
2010,04,27,10,15,6.40
2010,04,27,10,18,6.40
2010,04,27,10,19,6.40
2010,04,27,10,20,3.20
2010,04,27,10,21,3.20
2010,04,27,10,22,11.30
2010,04,27,10,23,11.30
2010,04,27,10,24,9.60
2010,04,27,10,25,14.50
2010,04,27,10,26,12.90
2010,04,27,10,27,12.90
2010,04,27,10,28,14.50
2010,04,27,10,29,11.30
2010,04,27,10,30,11.30
2010,04,27,10,31,9.60
2010,04,27,10,32,17.70
2010,04,27,10,33,8.10
2010,04,27,10,34,14.50
2010,04,27,10,35,11.30
2010,04,27,10,36,12.90
2010,04,27,10,37,14.50
2010,04,27,10,38,12.90
2010,04,27,10,39,11.30
2010,04,27,10,40,11.30
2010,04,27,10,41,9.60
2010,04,27,10,42,11.30
2010,04,27,10,43,11.30
2010,04,27,10,44,8.10
2010,04,27,10,45,9.60
2010,04,27,10,46,6.40
2010,04,27,10,47,14.50
2010,04,27,10,48,9.60
2010,04,27,10,49,11.30
2010,04,27,10,50,9.60
2010,04,27,10,51,9.60
2010,04,27,10,52,9.60
2010,04,27,10,53,11.30
2010,04,27,10,54,8.10
2010,04,27,10,55,9.60
2010,04,27,10,56,9.60
2010,04,27,10,57,9.60
2010,04,27,10,58,8.10
2010,04,27,10,59,8.10
2010,04,27,11,00,6.40
2010,04,27,11,01,4.80
2010,04,27,11,02,4.80
2010,04,27,11,03,8.10
2010,04,27,11,04,4.80
2010,04,27,11,05,8.10
2010,04,27,11,06,8.10
2010,04,27,11,07,11.30
2010,04,27,11,08,9.60
2010,04,27,11,09,11.30
2010,04,27,11,10,8.10
2010,04,27,11,11,19.30
2010,04,27,11,12,11.30
2010,04,27,11,13,11.30
2010,04,27,11,14,16.10
2010,04,27,11,15,16.10
2010,04,27,11,16,16.10
2010,04,27,11,17,9.60
2010,04,27,11,18,16.10
2010,04,27,11,19,19.30
2010,04,27,11,20,16.10
2010,04,27,11,21,12.90
2010,04,27,11,22,11.30
2010,04,27,11,23,8.10
2010,04,27,11,24,11.30
2010,04,27,11,25,9.60
2010,04,27,11,26,8.10
2010,04,27,11,27,16.10
2010,04,27,11,28,9.60
2010,04,27,11,29,19.30
2010,04,27,11,30,22.50
2010,04,27,11,31,14.50
2010,04,27,11,32,9.60
2010,04,27,11,33,8.10
2010,04,27,11,34,19.30
2010,04,27,11,35,19.30
2010,04,27,11,36,16.10
2010,04,27,11,37,8.10
2010,04,27,11,38,8.10
2010,04,27,11,39,8.10
2010,04,27,11,40,6.40
2010,04,27,11,41,6.40
2010,04,27,11,42,14.50
2010,04,27,11,43,11.30
2010,04,27,11,44,8.10
2010,04,27,11,45,4.80
2010,04,27,11,46,4.80
2010,04,27,11,47,4.80
2010,04,27,11,48,17.70
2010,04,27,11,49,16.10
2010,04,27,11,50,11.30
2010,04,27,11,51,17.70
2010,04,27,11,52,19.30
2010,04,27,11,53,19.30
2010,04,27,11,54,24.20
2010,04,27,11,55,22.50
2010,04,27,11,56,20.90
2010,04,27,11,57,19.30
2010,04,27,11,58,19.30
2010,04,27,11,59,20.90
2010,04,27,12,00,20.90
2010,04,27,12,01,20.90
2010,04,27,12,02,20.90
2010,04,27,12,03,20.90
2010,04,27,12,04,17.70
2010,04,27,12,05,19.30
2010,04,27,12,06,19.30
2010,04,27,12,07,16.10
2010,04,27,12,08,20.90
2010,04,27,12,09,22.50
2010,04,27,12,10,20.90
2010,04,27,12,11,24.20
2010,04,27,12,12,17.70
2010,04,27,12,13,24.20
2010,04,27,12,14,17.70
2010,04,27,12,15,11.30
2010,04,27,12,16,20.90
2010,04,27,12,17,22.50
2010,04,27,12,18,25.70
2010,04,27,12,19,27.40
2010,04,27,12,20,24.20
2010,04,27,12,21,17.70
2010,04,27,12,22,16.10
2010,04,27,12,23,19.30
2010,04,27,12,24,12.90
2010,04,27,12,25,19.30
2010,04,27,12,26,14.50
2010,04,27,12,27,9.60
2010,04,27,12,28,16.10
2010,04,27,12,29,14.50
2010,04,27,12,30,20.90
2010,04,27,12,31,19.30
2010,04,27,12,32,16.10
2010,04,27,12,33,19.30
2010,04,27,12,34,17.70
2010,04,27,12,35,14.50
2010,04,27,12,36,17.70
2010,04,27,12,37,17.70
2010,04,27,12,38,20.90
2010,04,27,12,39,19.30
2010,04,27,12,40,24.20
2010,04,27,12,41,25.70
2010,04,27,12,42,24.20
2010,04,27,12,43,22.50
2010,04,27,12,44,16.10
2010,04,27,12,45,17.70
2010,04,27,12,46,20.90
2010,04,27,12,47,30.60
2010,04,27,12,48,25.70
2010,04,27,12,49,24.20
2010,04,27,12,50,24.20
2010,04,27,12,51,32.20
2010,04,27,12,52,30.60
2010,04,27,12,53,27.40
2010,04,27,12,54,25.70
2010,04,27,12,55,29.00
2010,04,27,12,56,33.80
2010,04,27,12,57,29.00
2010,04,27,12,58,35.40
2010,04,27,12,59,32.20
2010,04,27,13,00,30.60
2010,04,27,13,01,29.00
2010,04,27,13,02,38.60
2010,04,27,13,03,38.60
2010,04,27,13,04,33.80
2010,04,27,13,05,40.20
2010,04,27,13,06,33.80
2010,04,27,13,07,35.40
2010,04,27,13,08,40.20
2010,04,27,13,09,38.60
2010,04,27,13,10,46.70
2010,04,27,13,11,40.20
2010,04,27,13,12,41.80
2010,04,27,13,13,35.40
2010,04,27,13,14,35.40
2010,04,27,13,15,33.80
2010,04,27,13,16,40.20
2010,04,27,13,17,33.80
2010,04,27,13,18,25.70
2010,04,27,13,19,29.00
2010,04,27,13,20,33.80
2010,04,27,13,21,30.60
2010,04,27,13,22,38.60
2010,04,27,13,23,33.80
2010,04,27,13,24,33.80
2010,04,27,13,25,37.00
2010,04,27,13,26,35.40
2010,04,27,13,27,35.40
2010,04,27,13,28,30.60
2010,04,27,13,29,29.00
2010,04,27,13,30,30.60
2010,04,27,13,31,27.40
2010,04,27,13,32,27.40
2010,04,27,13,33,22.50
2010,04,27,13,34,32.20
2010,04,27,13,35,25.70
2010,04,27,13,36,32.20
2010,04,27,13,37,32.20
2010,04,27,13,38,32.20
2010,04,27,13,39,25.70
2010,04,27,13,40,25.70
2010,04,27,13,41,24.20
2010,04,27,13,42,27.40
2010,04,27,13,43,25.70
2010,04,27,13,44,32.20
2010,04,27,13,45,29.00
2010,04,27,13,46,27.40
2010,04,27,13,47,29.00
2010,04,27,13,48,25.70
2010,04,27,13,49,27.40
2010,04,27,13,50,27.40
2010,04,27,13,51,27.40
2010,04,27,13,52,30.60
2010,04,27,13,53,29.00
2010,04,27,13,54,24.20
2010,04,27,13,55,25.70
2010,04,27,13,56,25.70
2010,04,27,13,57,20.90
2010,04,27,13,58,25.70
2010,04,27,13,59,25.70
2010,04,27,14,00,27.40
2010,04,27,14,01,20.90
2010,04,27,14,02,24.20
2010,04,27,14,03,24.20
2010,04,27,14,04,22.50
2010,04,27,14,05,19.30
2010,04,27,14,06,27.40
2010,04,27,14,07,27.40
2010,04,27,14,08,22.50
2010,04,27,14,09,25.70
2010,04,27,14,10,32.20
2010,04,27,14,11,33.80
2010,04,27,14,12,25.70
2010,04,27,14,13,29.00
2010,04,27,14,14,30.60
2010,04,27,14,15,27.40
2010,04,27,14,16,24.20
2010,04,27,14,17,29.00
2010,04,27,14,18,29.00
2010,04,27,14,19,33.80
2010,04,27,14,20,32.20
2010,04,27,14,21,25.70
2010,04,27,14,22,24.20
2010,04,27,14,23,22.50
2010,04,27,14,24,29.00
2010,04,27,14,25,27.40
2010,04,27,14,26,24.20
2010,04,27,14,27,25.70
2010,04,27,14,28,27.40
2010,04,27,14,29,24.20
2010,04,27,14,30,27.40
2010,04,27,14,31,25.70
2010,04,27,14,32,19.30
2010,04,27,14,33,27.40
2010,04,27,14,34,29.00
2010,04,27,14,35,24.20
2010,04,27,14,36,27.40
2010,04,27,14,37,32.20
2010,04,27,14,38,29.00
2010,04,27,14,39,27.40
2010,04,27,14,40,25.70
2010,04,27,14,41,25.70
2010,04,27,14,42,20.90
2010,04,27,14,43,22.50
2010,04,27,14,44,22.50
2010,04,27,14,45,24.20
2010,04,27,14,46,33.80
2010,04,27,14,47,29.00
2010,04,27,14,48,30.60
2010,04,27,14,49,30.60
2010,04,27,14,50,25.70
2010,04,27,14,51,27.40
2010,04,27,14,52,27.40
2010,04,27,14,53,30.60
2010,04,27,14,54,29.00
2010,04,27,14,55,30.60
2010,04,27,14,56,27.40
2010,04,27,14,57,35.40
2010,04,27,14,58,27.40
2010,04,27,14,59,22.50
2010,04,27,15,00,29.00
2010,04,27,15,01,29.00
2010,04,27,15,02,22.50
2010,04,27,15,03,33.80
2010,04,27,15,04,33.80
2010,04,27,15,05,29.00
2010,04,27,15,06,29.00
2010,04,27,15,07,30.60
2010,04,27,15,08,32.20
2010,04,27,15,09,33.80
2010,04,27,15,10,29.00
2010,04,27,15,11,37.00
2010,04,27,15,12,32.20
2010,04,27,15,13,33.80
2010,04,27,15,14,27.40
2010,04,27,15,15,30.60
2010,04,27,15,16,32.20
2010,04,27,15,17,45.10
2010,04,27,15,18,32.20
2010,04,27,15,19,24.20
2010,04,27,15,20,25.70
2010,04,27,15,21,35.40
2010,04,27,15,22,40.20
2010,04,27,15,23,46.70
2010,04,27,15,24,30.60
2010,04,27,15,25,35.40
2010,04,27,15,26,32.20
2010,04,27,15,27,32.20
2010,04,27,15,28,38.60
2010,04,27,15,29,38.60
2010,04,27,15,30,37.00
2010,04,27,15,31,35.40
2010,04,27,15,32,33.80
2010,04,27,15,33,32.20
2010,04,27,15,34,37.00
2010,04,27,15,35,33.80
2010,04,27,15,36,45.10
2010,04,27,15,37,35.40
2010,04,27,15,38,41.80
2010,04,27,15,39,30.60
2010,04,27,15,40,32.20
2010,04,27,15,41,27.40
2010,04,27,15,42,33.80
2010,04,27,15,43,41.80
2010,04,27,15,44,38.60
2010,04,27,15,45,30.60
2010,04,27,15,46,40.20
2010,04,27,15,47,35.40
2010,04,27,15,48,33.80
2010,04,27,15,49,37.00
2010,04,27,15,50,45.10
2010,04,27,15,51,38.60
2010,04,27,15,52,45.10
2010,04,27,15,53,32.20
2010,04,27,15,54,40.20
2010,04,27,15,55,40.20
2010,04,27,15,56,48.30
2010,04,27,15,57,35.40
2010,04,27,15,58,37.00
2010,04,27,15,59,46.70
2010,04,27,16,00,46.70
2010,04,27,16,01,30.60
2010,04,27,16,02,41.80
2010,04,27,16,03,38.60
2010,04,27,16,04,32.20
2010,04,27,16,05,32.20
2010,04,27,16,06,35.40
2010,04,27,16,07,33.80
2010,04,27,16,08,40.20
2010,04,27,16,09,35.40
2010,04,27,16,10,35.40
2010,04,27,16,11,35.40
2010,04,27,16,12,37.00
2010,04,27,16,13,41.80
2010,04,27,16,14,33.80
2010,04,27,16,15,35.40
2010,04,27,16,16,33.80
2010,04,27,16,17,35.40
2010,04,27,16,18,41.80
2010,04,27,16,19,38.60
2010,04,27,16,20,30.60
2010,04,27,16,21,35.40
2010,04,27,16,22,29.00
2010,04,27,16,23,27.40
2010,04,27,16,24,30.60
2010,04,27,16,25,35.40
2010,04,27,16,26,24.20
2010,04,27,16,27,27.40
2010,04,27,16,28,22.50
2010,04,27,16,29,24.20
2010,04,27,16,30,24.20
2010,04,27,16,31,24.20
2010,04,27,16,32,25.70
2010,04,27,16,33,30.60
2010,04,27,16,34,30.60
2010,04,27,16,35,32.20
2010,04,27,16,36,30.60
2010,04,27,16,37,27.40
2010,04,27,16,38,24.20
2010,04,27,16,39,25.70
2010,04,27,16,40,24.20
2010,04,27,16,41,24.20
2010,04,27,16,42,25.70
2010,04,27,16,43,24.20
2010,04,27,16,44,25.70
2010,04,27,16,45,24.20
2010,04,27,16,46,22.50
2010,04,27,16,47,17.70
2010,04,27,16,48,14.50
2010,04,27,16,49,16.10
2010,04,27,16,50,17.70
2010,04,27,16,51,20.90
2010,04,27,16,52,22.50
2010,04,27,16,53,22.50
2010,04,27,16,54,9.60
2010,04,27,16,55,16.10
2010,04,27,16,56,20.90
2010,04,27,16,57,30.60
2010,04,27,16,58,33.80
2010,04,27,16,59,33.80
2010,04,27,17,00,32.20
2010,04,27,17,01,30.60
2010,04,27,17,02,20.90
2010,04,27,17,03,25.70
2010,04,27,17,04,27.40
2010,04,27,17,05,27.40
2010,04,27,17,06,37.00
2010,04,27,17,07,33.80
2010,04,27,17,08,32.20
2010,04,27,17,09,35.40
2010,04,27,17,10,32.20
2010,04,27,17,11,38.60
2010,04,27,17,12,32.20
2010,04,27,17,13,40.20
2010,04,27,17,14,33.80
2010,04,27,17,15,32.20
2010,04,27,17,16,30.60
2010,04,27,17,17,24.20
2010,04,27,17,18,32.20
2010,04,27,17,19,25.70
2010,04,27,17,20,30.60
2010,04,27,17,21,33.80
2010,04,27,17,22,29.00
2010,04,27,17,23,30.60
2010,04,27,17,24,32.20
2010,04,27,17,25,40.20
2010,04,27,17,26,32.20
2010,04,27,17,27,37.00
2010,04,27,17,28,33.80
2010,04,27,17,29,27.40
2010,04,27,17,30,27.40
2010,04,27,17,31,29.00
2010,04,27,17,32,30.60
2010,04,27,17,33,32.20
2010,04,27,17,34,29.00
2010,04,27,17,35,33.80
2010,04,27,17,36,29.00
2010,04,27,17,37,20.90
2010,04,27,17,38,25.70
2010,04,27,17,39,29.00
2010,04,27,17,40,30.60
2010,04,27,17,41,29.00
2010,04,27,17,42,33.80
2010,04,27,17,43,33.80
2010,04,27,17,44,24.20
2010,04,27,17,45,25.70
2010,04,27,17,46,33.80
2010,04,27,17,47,33.80
2010,04,27,17,48,33.80
2010,04,27,17,49,29.00
2010,04,27,17,50,24.20
2010,04,27,17,51,37.00
2010,04,27,17,52,40.20
2010,04,27,17,53,38.60
2010,04,27,17,54,35.40
2010,04,27,17,55,43.50
2010,04,27,17,56,48.30
2010,04,27,17,57,40.20
2010,04,27,17,58,43.50
2010,04,27,17,59,38.60
2010,04,27,18,00,33.80
2010,04,27,18,01,33.80
2010,04,27,18,02,35.40
2010,04,27,18,03,32.20
2010,04,27,18,04,40.20